Weather History for KEST - October, 2011

Change the Weather History Date:

Monday, October 10, 2011

  Actual Average Record
Temperature  
Mean Temperature 59 °F 50 °F  
Max Temperature 68 °F 63 °F 84 °F (1955)
Min Temperature 50 °F 38 °F 20 °F (1987)
Degree Days  
Heating Degree Days 6 15  
Month to date heating degree days 34 132  
Since 1 July heating degree days 254 340  
Cooling Degree Days 0 0  
Month to date cooling degree days 21 4  
Year to date cooling degree days 767 591  
Growing Degree Days 10 (Base 50)    
Moisture  
Dew Point 53 °F    
Average Humidity 80    
Maximum Humidity 100    
Minimum Humidity 60    
Precipitation  
Precipitation 0.04 in 0.08 in 0.43 in (1973)
Month to date precipitation 0.04 0.98  
Year to date precipitation 18.80  
Sea Level Pressure  
Sea Level Pressure 29.99 in    
Wind  
Wind Speed 10 mph (South)    
Max Wind Speed 18 mph    
Max Gust Speed 23 mph    
Visibility 9 miles    
Events Rain    
T = Trace of Precipitation, MM = Missing Value Source: NWS Daily Summary

Daily Weather History Graph

Daily Weather History Graph

Search for Another Location

Airport or City:

Trip Planner

Search our weather history database for the weather conditions in past years. The results will help you decide how hot, cold, wet, or windy it might be!

Date:

Astronomy

Oct. 10, 2011 Rise Set
Actual Time 7:26 AM CDT 6:44 PM CDT
Civil Twilight 6:58 AM CDT 7:13 PM CDT
Nautical Twilight 6:24 AM CDT 7:46 PM CDT
Astronomical Twilight 5:51 AM CDT 8:19 PM CDT
Moon 5:48 PM CDT (10/10) 6:08 AM CDT (10/10)
Length of Visible Light 12h 15m
Length of Day
11h 18m
Waxing Gibbous, 98% of the Moon is Illuminated
Oct 10
Waxing Gibbous
Oct 11
Full
Oct 19
Last Quarter
Oct 26
New
Nov 2
First Quarter

Hourly Weather History & Observations

Time (CDT) Temp. Dew Point Humidity Pressure Visibility Wind Dir Wind Speed Gust Speed Precip Events Conditions
12:52 AM 63.0 °F 48.9 °F 60% 30.05 in 10.0 mi SSE 15.0 mph - N/A   Clear
1:52 AM 61.0 °F 48.9 °F 64% 30.05 in 10.0 mi SSE 15.0 mph - N/A   Clear
2:52 AM 60.1 °F 48.9 °F 67% 30.03 in 10.0 mi SSE 13.8 mph - N/A   Clear
3:52 AM 57.9 °F 48.9 °F 72% 30.04 in 10.0 mi South 12.7 mph - N/A   Partly Cloudy
4:52 AM 57.0 °F 48.9 °F 74% 30.03 in 10.0 mi South 10.4 mph - N/A   Clear
5:52 AM 55.0 °F 48.0 °F 77% 30.03 in 10.0 mi SSE 6.9 mph - N/A   Clear
6:52 AM 54.0 °F 48.0 °F 80% 30.03 in 10.0 mi South 6.9 mph - N/A   Clear
7:52 AM 54.0 °F 48.9 °F 83% 30.02 in 9.0 mi SSE 8.1 mph - N/A   Clear
8:52 AM 57.0 °F 50.0 °F 77% 30.02 in 10.0 mi South 9.2 mph - N/A   Clear
9:52 AM 60.1 °F 51.1 °F 72% 30.02 in 10.0 mi South 9.2 mph - N/A   Overcast
10:52 AM 62.1 °F 52.0 °F 70% 30.02 in 10.0 mi South 9.2 mph - N/A   Mostly Cloudy
11:52 AM 64.0 °F 54.0 °F 70% 30.02 in 10.0 mi SSW 11.5 mph - N/A   Clear
12:52 PM 60.1 °F 57.0 °F 90% 30.02 in 9.0 mi SSW 9.2 mph - 0.01 in   Mostly Cloudy
1:29 PM 60.8 °F 57.2 °F 88% 30.00 in 4.0 mi SSW 10.4 mph - 0.02 in Rain Rain
1:52 PM 61.0 °F 57.9 °F 90% 29.99 in 9.0 mi South 10.4 mph - 0.03 in   Mostly Cloudy
2:52 PM 62.1 °F 57.9 °F 86% 29.97 in 10.0 mi SSW 12.7 mph - N/A   Overcast
3:10 PM 64.4 °F 59.0 °F 83% 29.97 in 10.0 mi South 10.4 mph - N/A   Overcast
3:22 PM 64.4 °F 57.2 °F 77% 29.96 in 10.0 mi South 13.8 mph - N/A   Scattered Clouds
3:52 PM 66.0 °F 57.0 °F 73% 29.95 in 10.0 mi South 16.1 mph - N/A   Scattered Clouds
4:52 PM 68.0 °F 55.0 °F 63% 29.93 in 10.0 mi South 13.8 mph 21.9 mph N/A   Partly Cloudy
5:52 PM 66.0 °F 55.9 °F 70% 29.92 in 10.0 mi SSE 11.5 mph - N/A   Clear
6:52 PM 62.1 °F 55.0 °F 78% 29.93 in 10.0 mi SSE 8.1 mph - N/A   Clear
7:52 PM 60.1 °F 55.0 °F 83% 29.94 in 10.0 mi SSE 9.2 mph - N/A   Clear
8:52 PM 57.0 °F 54.0 °F 89% 29.94 in 9.0 mi South 6.9 mph - N/A   Clear
9:52 PM 52.0 °F 51.1 °F 97% 29.95 in 7.0 mi South 6.9 mph - N/A   Clear
10:52 PM 51.1 °F 50.0 °F 96% 29.94 in 7.0 mi South 8.1 mph - N/A   Clear
11:52 PM 51.1 °F 48.9 °F 92% 29.93 in 7.0 mi South 6.9 mph - N/A   Clear